Regional Weather Roundup
Issued by NWS Grand Forks, ND

Home | Current Version | Previous Version | Graphics & Text | Print | Product List | Glossary On
Versions: 1 2 3 4 5 6 7 8 9 10 11 12 13 14 15 16 17 18 19 20 21 22 23 24 25 26 27 28 29 30 31 32 33 34 35 36 37 38 39 40 41 42 43 44 45 46 47 48 49 50
396
ASUS43 KFGF 280310
RWRFGF
PRAIRIE TO PINES  WEATHER ROUNDUP
NATIONAL WEATHER SERVICE EASTERN NORTH DAKOTA/GRAND FORKS ND
1000 PM CDT SAT AUG 27 2016

 **SATELLITE DATA USED TO AUGMENT SKY COVER AT AUTOMATED STATIONS**
 *****  WEATHER ACROSS EASTERN NORTH DAKOTA  *****

CITY           SKY/WX    TMP DP  RH WIND       PRES   REMARKS
GRAND FORKS    CLEAR     58  56  93 S7        29.95R
GRAND FRKS AFB CLEAR     57  55  93 S5        29.95R
GRAND FRKS NWS   N/A     57 N/A N/A S5          N/A
DEVILS LAKE    CLEAR     63  55  75 E6        29.93R
FARGO          PTCLDY    61  57  87 E7        29.98R
WAHPETON ARPT  CLEAR     61  55  82 SE7       29.99S
$$

 ***** WEATHER ACROSS CENTRAL AND WESTERN NORTH DAKOTA  *****

CITY           SKY/WX    TMP DP  RH WIND       PRES   REMARKS
BISMARCK       CLEAR     63  52  67 SE5       29.90R
MINOT          CLEAR     62  47  57 SE7       29.86R
JAMESTOWN      CLEAR     64  60  87 SE7       29.94R
MINOT AFB      CLEAR     60  45  57 SE6       29.86R
GARRISON         N/A     62  52  69 SE6       29.88R
WILLISTON      PTCLDY    73  44  35 SE8       29.80R
DICKINSON      CLEAR     64  42  44 SE13      29.87R
HETTINGER      CLEAR     65  49  56 E9        29.91R
$$

 *****  OTHER AIRPORT OBSERVATIONS IN OUR AREA  *****

CITY           SKY/WX    TMP DP  RH WIND       PRES   REMARKS
WALHALLA       NOT AVBL
GRAFTON AIRPOR FAIR      57  57 100 S7        29.96R
VALLEY CITY AR FAIR      64  64 100 SE9       29.98R
CANDO          NOT AVBL
CAVALIER APRT  FAIR      59  59 100 S5        29.93R
GWINNER        FAIR      64  63  94 E10       29.98R
SHEYENNE NWR     N/A     65  60  85 SE9       29.95S
ROLLA          FAIR      52  50  93 CALM      29.94R
 ***** THE ABOVE OBSERVATIONS ARE NON NWS ARE NOT QUALITY
       CONTROLLED AND MAY MIS-REPORT RAIN FOR SNOW...
$$

  *****  WEATHER ACROSS NORTHERN MINNESOTA  *****

CITY           SKY/WX    TMP DP  RH WIND       PRES   REMARKS
FLAG ISLAND    PTCLDY    63  57  82 CALM      29.97R
WARROAD        CLEAR     57  54  88 CALM      29.99R
ROSEAU         CLEAR     57  52  82 E3        29.98R
HALLOCK        CLEAR     59  57  94 SE7       29.94R
THF RVR FALLS  CLEAR     58  57  97 SE5       29.98R
BAUDETTE       PTCLDY    56  55  97 SE7       29.99R
WASKISH        MOCLDY    54  54 100 SE5       30.01R
CROOKSTON      CLEAR     57  54  88 S7        29.97R
STEPHEN NDAWN    N/A     61  59  94 S5          N/A
GREENBUSH NDAW   N/A     54  54 100 SE2         N/A
$$
  *****  WEATHER ACROSS CENTRAL AND WEST MINNESOTA  *****

CITY           SKY/WX    TMP DP  RH WIND       PRES   REMARKS
FOSSTON        CLEAR     54  54 100 SE5       29.99S
BEMIDJI        CLOUDY    56  55  96 SE5       30.01R
PARK RAPIDS    CLOUDY    63  58  83 S8        30.01R
ELBOW LAKE     FAIR      62  59  91 E6        30.02R
WADENA         NOT AVBL
DETROIT LAKES  PTCLDY    64  59  82 SW7       30.01R
MOORHEAD       PTCLDY    63  55  77 E5        30.00R
FERGUS FALLS   CLEAR     63  59  88 SE7       30.02S
MORRIS MN      PTCLDY    61  61 100 SE6       30.02R
STAPLES        CLEAR     57  55  94 S6        30.03S
$$
  *****  WEATHER ELSEWHERE ACROSS MINNESOTA  *****

CITY           SKY/WX    TMP DP  RH WIND       PRES   REMARKS
DULUTH         CLOUDY    58  56  93 N6        30.06S
INTRNTL FALLS  MOCLDY    54  53  97 SE3       30.02S
ELY            CLOUDY    57  55  94 SE8       30.04F
CLOQUET        CLOUDY    61  57  88 CALM      30.06S
WHEATON        NOT AVBL
BRAINERD       MOCLDY    57  57 100 S5        30.04S
HIBBING        FOG       50  49  96 CALM      30.06R VSB 1/2
ALEXANDRIA     CLEAR     60  58  92 SE6       30.05R
SAINT CLOUD    FOG       61  61 100 CALM      30.05S VSB 1/4
MINNEAPOLIS    PTCLDY    65  61  87 CALM      30.06R
$$

  *****  WEATHER ACROSS SOUTH DAKOTA  *****

CITY           SKY/WX    TMP DP  RH WIND       PRES   REMARKS
SIOUX FALLS    PTCLDY    71  65  81 S7        30.02R
BROOKINGS      CLEAR     66  62  87 SE8       30.01R
WATERTOWN      CLEAR     68  62  81 SE7       30.00R
HURON          PTCLDY    71  63  75 SE12      29.95R
SISSETON         N/A     64  61  90 S6        29.99R
ABERDEEN       CLEAR     64  60  87 SE6       29.94R
MITCHELL       CLEAR     72  65  78 SE9       29.97R
PIERRE         CLEAR     73  58  59 E13       29.89R
MOBRIDGE       PTCLDY    71  53  52 E12       29.89R
RAPID CITY     MOCLDY    65  52  62 E7        29.92R
$$

  *****  SOME WEATHER IN NEARBY STATES *****

CITY           SKY/WX    TMP DP  RH WIND       PRES   REMARKS
GLASGOW MT     CLOUDY    68  42  38 SE12      29.73R
GREAT FALLS MT CLOUDY    72  39  30 SW9       29.77R
CHEYENNE WY    CLOUDY    63  41  44 SW8       30.14R
SCOTTSBLUFF NE CLEAR     66  53  63 SE9       30.00R
OMAHA NE       CLEAR     75  67  76 SE7       30.04R
DES MOINES IA  MOCLDY    74  70  87 SE6       30.05R
DAVENPORT IA   MOCLDY    72  69  90 NE6       30.06R
CHICAGO IL     MOCLDY    77  70  79 SW3       30.08R
EAU CLAIRE WI  CLOUDY    66  65  96 SW3       30.06R
LA CROSSE WI   MOCLDY    68  67  96 SE3       30.06R
$$

  *****  SOME NATIONAL WEATHER *****

CITY           SKY/WX    TMP DP  RH WIND       PRES   REMARKS
LA GUARDIA NY  PTCLDY    79  61  53 S7        30.22R
RALEIGH NC     MOCLDY    80  70  71 E6        30.15R
ATLANTA GA     PTCLDY    82  72  71 E9        30.12R
NEW ORLEANS LA CLOUDY    83  75  77 SE7       29.99R HX  90
OKLAHOMA CITY  CLOUDY    77  68  73 CALM      30.03R
ALBUQUERQUE NM CLOUDY    67  50  54 N7        30.19S
SALT LAKE CITY PTCLDY    79  30  16 SE6       30.00R
LOS ANGELES CA PTCLDY    67  59  75 W14       29.95R
BOISE ID       CLEAR     84  29  13 CALM      29.84S
SEATTLE WA     PTCLDY    64  52  64 SW15      29.95R
$$

*** WEATHER ACROSS MANITOBA...SASKATCHEWAN AND ONTARIO ***
                ***ONTARIO***

CITY           SKY/WX    TMP DP  RH WIND       PRES   REMARKS
GERALDTON      LGT RAIN  61  55  82 SE2       30.06F
THUNDER BAY    CLOUDY    61  59  94 N2        30.05S
SIOUX LOOKOUT  CLOUDY    57  55  94 SE3       30.01R
TORONTO        MOCLDY    73  63  68 SE9       30.14S
BIG TROUT LK   CLOUDY    61  55  82 E5        29.96S
PICKLE LAKE    NOT AVBL
DRYDEN         CLOUDY    57  55  94 S6        30.00R
KENORA         PTCLDY    57  55  94 S5        29.99R
$$
                *** MANITOBA***

CITY           SKY/WX    TMP DP  RH WIND       PRES   REMARKS
BRANDON        CLEAR     57  50  77 SE5       29.89R
DAUPHIN        CLEAR     59  55  88 S7        29.86R
ISLAND LAKE    PTCLDY    61  61 100 E3        29.90R
PILOT MOUND      N/A     57  48  72 SE3         N/A
THE PAS        PTCLDY    57  54  88 SE5       29.83R
THOMPSON       MOCLDY    55  52  88 E3        29.85R
WINNIPEG       CLEAR     61  57  88 S8        29.93R
LYNN LAKE      PTCLDY    59  52  77 MISG      29.82R
CHURCHILL      MOCLDY    54  50  87 S9        29.91R
GILLAM         CLEAR     59  54  82 SE5       29.90R
$$
                ***SASKATCHEWAN***

CITY           SKY/WX    TMP DP  RH WIND       PRES   REMARKS
ESTEVAN        PTCLDY    63  46  55 SE9       29.82R
KINDERSLEY     MOCLDY    66  55  68 E10       29.58R
LLOYDMINSTER   MOCLDY    61  55  82 N7        29.61R
PRINCE ALBERT  CLOUDY    64  52  63 SE10G20   29.66S
REGINA         MOCLDY    68  43  40 SE17      29.74R
YORKTON        CLEAR     59  52  77 SE8       29.82R
N. BATTLEFORD  NOT AVBL
LA RONGE       MOCLDY    63  54  72 E10       29.72F
SASKATOON      CLOUDY    70  50  49 SE15G26   29.62S
SWIFT CURRENT  MOCLDY    68  50  52 S13       29.64R
$$
NOTE: THESE ARE AUTOMATED STATIONS WITH LIMITED QUALITY CONTROL
      "FAIR" INDICATES FEW OR NO CLOUDS BELOW 12,000 FEET WITH NO
      SIGNIFICANT WEATHER AND/OR OBSTRUCTIONS TO VISIBILITY.
      SKY/WX - SKY CONDITION AND SIGNIFICANT WEATHER.
      TMP - AIR TEMPERATURE.    DP   - DEWPOINT TEMPERATURE.
      RH  - RELATIVE HUMIDITY.  PRES - PRESSURE.
      HX  - HEAT INDEX.         WCI  - WIND CHILL INDEX.
$




USA.gov is the U.S. government's official web portal to all federal, state and local government web resources and services.